Tracking 25686 objects as of 26-May-2022
HD Live streaming from Space Station
objects crossing your sky now

CAPE 1

Track CAPE 1 now!
10-day predictions
CAPE 1 is classified as:


NORAD ID: 31130
Int'l Code: 2007-012P
Perigee: 642.2 km
Apogee: 777.3 km
Inclination: 98.3 °
Period: 98.8 minutes
Semi major axis: 7080 km
RCS: 0.0406 m2 (small)
Launch date: April 17, 2007
Source: United States (US)
Launch site: TYURATAM MISSILE AND SPACE COMPLEX (TTMTR)

Uplink (MHz):
Downlink (MHz): 435.245
Beacon (MHz):
Mode: 1200bps AFSK
Call sign: K5USL
Status: Active

aabbcc
Your satellite tracking list
Your tracking list is empty




NASA's NSSDC Master Catalog

Two Line Element Set (TLE):
1 31130U 07012P   22145.37119888  .00001621  00000-0  34887-3 0  9990
2 31130  98.2681  86.0981 0095439   5.7402 354.4866 14.57078814801734
Source of the keplerian elements: AFSPC